Estherville, IA

4:19 AM CDT on September 30, 2016 (GMT -0500)
Estherville Municipal

Weather History for KEST - May, 2012

Change the Weather History Date:

Monday, May 21, 2012

  Actual Average Record
Temperature  
Mean Temperature 61 °F 60 °F  
Max Temperature 75 °F 72 °F 93 °F (1975)
Min Temperature 47 °F 48 °F 34 °F (2003)
Degree Days  
Heating Degree Days 4 6  
Month to date heating degree days 76 190  
Since 1 July heating degree days 6128 7651  
Cooling Degree Days 0 1  
Month to date cooling degree days 41 15  
Year to date cooling degree days 61 17  
Growing Degree Days 10 (Base 50)    
Moisture  
Dew Point 43 °F    
Average Humidity 57    
Maximum Humidity 86    
Minimum Humidity 27    
Precipitation  
Precipitation 0.00 in 0.11 in 3.00 in (1960)
Month to date precipitation 2.77 2.60  
Year to date precipitation 9.26  
Sea Level Pressure  
Sea Level Pressure 30.20 in    
Wind  
Wind Speed 6 mph (SW)    
Max Wind Speed 16 mph    
Max Gust Speed 18 mph    
Visibility 10 miles    
Events      
T = Trace of Precipitation, MM = Missing Value Source: NWS Daily Summary

Daily Weather History Graph

Daily Weather History Graph

Search for Another Location

Airport or City:

Trip Planner

Search our weather history database for the weather conditions in past years. The results will help you decide how hot, cold, wet, or windy it might be!

Date:

Astronomy

May. 21, 2012 Rise Set
Actual Time 5:48 AM CDT 8:43 PM CDT
Civil Twilight 5:14 AM CDT 9:17 PM CDT
Nautical Twilight 4:31 AM CDT 10:00 PM CDT
Astronomical Twilight 3:41 AM CDT 10:50 PM CDT
Moon 6:11 AM CDT (5/21) 9:35 PM CDT (5/21)
Length of Visible Light 16h 02m
Length of Day
14h 55m
New Moon, 0% of the Moon is Illuminated
May 21
New Moon
May 28
First Quarter
Jun 4
Full
Jun 11
Last Quarter
Jun 19
New

Hourly Weather History & Observations

Time (CDT) Temp. Dew Point Humidity Pressure Visibility Wind Dir Wind Speed Gust Speed Precip Events Conditions
12:52 AM 48.0 °F 44.1 °F 86% 30.26 in 10.0 mi SW 5.8 mph - N/A   Clear
1:52 AM 48.0 °F 43.0 °F 83% 30.25 in 10.0 mi WSW 5.8 mph - N/A   Clear
2:52 AM 46.9 °F 43.0 °F 86% 30.25 in 10.0 mi WSW 6.9 mph - N/A   Clear
3:52 AM 48.0 °F 43.0 °F 83% 30.25 in 10.0 mi WSW 8.1 mph - N/A   Clear
4:52 AM 46.9 °F 43.0 °F 86% 30.25 in 10.0 mi West 5.8 mph - N/A   Clear
5:52 AM 48.9 °F 43.0 °F 80% 30.26 in 10.0 mi West 8.1 mph - N/A   Clear
6:52 AM 52.0 °F 43.0 °F 71% 30.26 in 10.0 mi West 8.1 mph - N/A   Clear
7:52 AM 55.9 °F 46.9 °F 72% 30.27 in 10.0 mi West 5.8 mph - N/A   Clear
9:52 AM 66.0 °F 48.0 °F 52% 30.26 in 10.0 mi West 11.5 mph - N/A   Clear
10:52 AM 68.0 °F 45.0 °F 43% 30.26 in 10.0 mi WNW 4.6 mph - N/A   Clear
11:52 AM 69.1 °F 42.1 °F 38% 30.25 in 10.0 mi WNW 6.9 mph - N/A   Partly Cloudy
12:52 PM 71.1 °F 43.0 °F 36% 30.23 in 10.0 mi Calm Calm - N/A   Clear
1:52 PM 73.0 °F 42.1 °F 33% 30.22 in 10.0 mi Variable 5.8 mph - N/A   Scattered Clouds
3:52 PM 73.0 °F 37.9 °F 28% 30.17 in 10.0 mi Calm Calm - N/A   Clear
4:52 PM 73.9 °F 39.0 °F 28% 30.14 in 10.0 mi WSW 4.6 mph - N/A   Clear
5:52 PM 73.9 °F 42.1 °F 32% 30.13 in 10.0 mi ESE 4.6 mph - N/A   Clear
6:52 PM 73.0 °F 41.0 °F 31% 30.11 in 10.0 mi South 5.8 mph - N/A   Partly Cloudy
7:52 PM 71.1 °F 39.9 °F 32% 30.09 in 10.0 mi SSE 5.8 mph - N/A   Clear
8:52 PM 68.0 °F 44.1 °F 42% 30.08 in 10.0 mi ESE 4.6 mph - N/A   Clear
9:52 PM 66.0 °F 43.0 °F 43% 30.09 in 9.0 mi East 5.8 mph - N/A   Overcast
11:52 PM 62.1 °F 46.9 °F 58% 30.08 in 10.0 mi SSW 3.5 mph - N/A   Scattered Clouds